TimeEST,TemperatureF,Dew PointF,Humidity,Sea Level PressureIn,VisibilityMPH,Wind Direction,Wind SpeedMPH,Gust SpeedMPH,PrecipitationIn,Events,Conditions,WindDirDegrees,DateUTC
12:56 AM,21.0,16.0,81,29.91,9.0,WNW,9.2,-,0.00,,Overcast,300,2013-03-02 05:56:00
1:07 AM,21.2,15.8,80,29.82,8.0,NW,9.2,-,0.00,Snow,Light Snow,310,2013-03-02 06:07:00
1:56 AM,21.0,16.0,81,29.91,6.0,WNW,10.4,-,0.00,Snow,Light Snow,300,2013-03-02 06:56:00
2:56 AM,19.9,16.0,85,29.90,7.0,NW,8.1,-,0.00,Snow,Light Snow,320,2013-03-02 07:56:00
3:56 AM,19.9,16.0,85,29.90,3.0,NW,8.1,-,0.00,Snow,Light Snow,320,2013-03-02 08:56:00
4:45 AM,19.4,15.8,86,29.81,5.0,NW,10.4,-,0.00,Snow,Light Snow,320,2013-03-02 09:45:00
4:56 AM,19.9,15.1,81,29.90,5.0,NNW,8.1,-,0.00,Snow,Light Snow,330,2013-03-02 09:56:00
5:28 AM,19.4,15.8,86,29.81,5.0,NW,5.8,-,0.00,Snow,Light Snow,320,2013-03-02 10:28:00
5:56 AM,19.9,15.1,81,29.90,6.0,NNW,6.9,-,0.00,Snow,Light Snow,330,2013-03-02 10:56:00
7:56 AM,19.0,15.1,85,29.92,3.0,NNW,8.1,-,0.00,Snow,Light Snow,330,2013-03-02 12:56:00
8:56 AM,19.0,14.0,81,29.92,4.0,NNW,8.1,-,0.00,Snow,Light Snow,330,2013-03-02 13:56:00
9:38 AM,19.4,14.0,80,29.82,10.0,Variable,5.8,-,0.00,,Overcast,0,2013-03-02 14:38:00
9:56 AM,19.9,14.0,78,29.91,9.0,WNW,6.9,-,0.00,,Overcast,300,2013-03-02 14:56:00
10:56 AM,21.0,14.0,74,29.91,9.0,NW,10.4,-,N/A,,Overcast,310,2013-03-02 15:56:00
11:47 AM,21.2,14.0,74,29.81,9.0,NW,10.4,-,N/A,,Overcast,320,2013-03-02 16:47:00
12:56 PM,21.9,15.1,75,29.88,10.0,WNW,10.4,-,N/A,,Overcast,300,2013-03-02 17:56:00
1:56 PM,21.9,15.1,75,29.87,10.0,NNW,10.4,-,N/A,,Overcast,330,2013-03-02 18:56:00
2:56 PM,21.9,15.1,75,29.87,4.0,NW,10.4,-,0.00,Snow,Light Snow,310,2013-03-02 19:56:00
3:56 PM,21.9,15.1,75,29.87,4.0,NNW,10.4,-,0.00,Snow,Light Snow,330,2013-03-02 20:56:00
4:56 PM,21.0,14.0,74,29.87,7.0,NW,10.4,-,0.00,Snow,Light Snow,320,2013-03-02 21:56:00
5:56 PM,19.9,14.0,78,29.89,5.0,NW,6.9,-,0.00,Snow,Light Snow,320,2013-03-02 22:56:00
6:56 PM,19.0,12.9,77,29.90,7.0,WNW,10.4,-,0.00,Snow,Light Snow,300,2013-03-02 23:56:00
7:56 PM,19.0,12.9,77,29.90,5.0,NW,9.2,-,0.00,Snow,Light Snow,320,2013-03-03 00:56:00
8:04 PM,19.4,12.2,74,29.80,6.0,NW,10.4,-,0.00,Snow,Light Snow,320,2013-03-03 01:04:00
8:56 PM,19.0,14.0,81,29.90,4.0,NW,9.2,-,0.00,Snow,Light Snow,310,2013-03-03 01:56:00
9:40 PM,19.4,14.0,80,29.79,1.8,NW,10.4,-,0.00,Snow,Light Snow,320,2013-03-03 02:40:00
9:43 PM,19.4,14.0,80,29.79,2.0,NW,12.7,-,0.00,Snow,Light Snow,320,2013-03-03 02:43:00
9:56 PM,19.0,15.1,85,29.89,2.0,NNW,10.4,-,0.00,Snow,Light Snow,330,2013-03-03 02:56:00
10:03 PM,19.4,15.8,86,29.79,2.5,NW,6.9,-,0.00,Snow,Light Snow,320,2013-03-03 03:03:00
10:13 PM,19.4,15.8,86,29.79,5.0,NW,11.5,17.3,0.00,Snow,Light Snow,320,2013-03-03 03:13:00
10:20 PM,19.4,15.8,86,29.79,8.0,NNW,12.7,-,0.00,Snow,Light Snow,330,2013-03-03 03:20:00
10:56 PM,19.9,14.0,78,29.87,5.0,NW,16.1,-,0.00,Snow,Light Snow,310,2013-03-03 03:56:00
11:37 PM,19.4,15.8,86,29.77,2.5,NNW,9.2,-,0.00,Snow,Light Snow,340,2013-03-03 04:37:00
11:50 PM,19.4,14.0,80,29.77,3.0,NW,10.4,-,0.00,Snow,Light Snow,320,2013-03-03 04:50:00
11:56 PM,19.0,14.0,81,29.87,3.0,NW,9.2,-,0.00,Snow,Light Snow,320,2013-03-03 04:56:00